| time (UTC) | temp F | wind direction | speed MPH | gust MPH | rain 1hr in | rain 24hr in | rain mn in | humidity % | barometer mb |
| 20260510191554 | 55 | 348 | 2.0 | 3.0 | 0.00 | 0.00 | 0.00 | 70 | 1012.4 |
| 20260510190051 | 56 | 360 | 0.0 | 4.0 | 0.00 | 0.00 | 0.00 | 68 | 1012.4 |
| 20260510184551 | 57 | 13 | 3.0 | 5.0 | 0.00 | 0.00 | 0.00 | 66 | 1012.1 |
| 20260510183055 | 58 | 9 | 2.0 | 5.0 | 0.00 | 0.00 | 0.00 | 66 | 1012.1 |
| 20260510181549 | 58 | 107 | 0.0 | 4.0 | 0.00 | 0.00 | 0.00 | 64 | 1011.9 |
| 20260510180052 | 59 | 110 | 5.0 | 8.0 | 0.00 | 0.00 | 0.00 | 63 | 1011.9 |
| 20260510174548 | 60 | 91 | 6.0 | 9.0 | 0.00 | 0.00 | 0.00 | 63 | 1012.0 |
| 20260510173054 | 62 | 105 | 3.0 | 6.0 | 0.00 | 0.00 | 0.00 | 61 | 1012.0 |
| 20260510171556 | 63 | 121 | 3.0 | 9.0 | 0.00 | 0.00 | 0.00 | 60 | 1011.9 |
| 20260510170051 | 63 | 126 | 5.0 | 9.0 | 0.00 | 0.00 | 0.00 | 59 | 1012.1 |
| 20260510164548 | 64 | 96 | 2.0 | 5.0 | 0.00 | 0.00 | 0.00 | 54 | 1012.2 |
| 20260510163044 | 64 | 76 | 1.0 | 4.0 | 0.00 | 0.00 | 0.00 | 52 | 1012.3 |
| 20260510161548 | 65 | 103 | 3.0 | 8.0 | 0.00 | 0.00 | 0.00 | 52 | 1012.3 |
| 20260510160049 | 65 | 94 | 3.0 | 9.0 | 0.00 | 0.00 | 0.00 | 53 | 1012.6 |
| 20260510154549 | 65 | 78 | 5.0 | 10.0 | 0.00 | 0.00 | 0.00 | 53 | 1012.5 |
| 20260510153048 | 65 | 91 | 5.0 | 10.0 | 0.00 | 0.00 | 0.00 | 54 | 1012.8 |
| 20260510151546 | 65 | 111 | 5.0 | 11.0 | 0.00 | 0.00 | 0.00 | 51 | 1012.6 |
| 20260510150046 | 66 | 135 | 1.0 | 7.0 | 0.00 | 0.00 | 0.00 | 50 | 1012.7 |
| 20260510144550 | 67 | 84 | 6.0 | 13.0 | 0.00 | 0.00 | 0.00 | 49 | 1012.7 |
| 20260510143051 | 67 | 55 | 5.0 | 13.0 | 0.00 | 0.00 | 0.00 | 50 | 1012.9 |
| 20260510141600 | 68 | 51 | 3.0 | 10.0 | 0.00 | 0.00 | 0.00 | 48 | 1012.8 |
| 20260510140041 | 66 | 57 | 7.0 | 11.0 | 0.00 | 0.00 | 0.00 | 51 | 1013.0 |
| 20260510134555 | 67 | 74 | 4.0 | 10.0 | 0.00 | 0.00 | 0.00 | 48 | 1013.0 |
| 20260510133107 | 67 | 360 | 5.0 | 11.0 | 0.00 | 0.00 | 0.00 | 48 | 1013.0 |
| 20260510131554 | 66 | 106 | 4.0 | 10.0 | 0.00 | 0.00 | 0.00 | 49 | 1013.4 |
| 20260510130045 | 65 | 88 | 1.0 | 13.0 | 0.00 | 0.00 | 0.00 | 46 | 1013.5 |
| 20260510124548 | 65 | 48 | 3.0 | 9.0 | 0.00 | 0.00 | 0.00 | 46 | 1013.6 |
| 20260510123100 | 64 | 49 | 4.0 | 12.0 | 0.00 | 0.00 | 0.00 | 48 | 1013.8 |
| 20260510121547 | 65 | 96 | 4.0 | 13.0 | 0.00 | 0.00 | 0.00 | 49 | 1013.8 |
| 20260510120045 | 64 | 119 | 6.0 | 12.0 | 0.00 | 0.00 | 0.00 | 49 | 1014.1 |
| 20260510114543 | 63 | 59 | 2.0 | 10.0 | 0.00 | 0.00 | 0.00 | 50 | 1014.2 |
| 20260510113053 | 63 | 71 | 4.0 | 8.0 | 0.00 | 0.00 | 0.00 | 55 | 1014.4 |
| 20260510111546 | 62 | 101 | 5.0 | 12.0 | 0.00 | 0.00 | 0.00 | 54 | 1014.7 |
| 20260510110052 | 62 | 40 | 3.0 | 9.0 | 0.00 | 0.00 | 0.00 | 54 | 1015.1 |
| 20260510104554 | 61 | 96 | 3.0 | 10.0 | 0.00 | 0.00 | 0.00 | 57 | 1015.3 |
| 20260510103050 | 61 | 105 | 5.0 | 11.0 | 0.00 | 0.00 | 0.00 | 58 | 1015.5 |
| 20260510101555 | 60 | 19 | 2.0 | 9.0 | 0.00 | 0.00 | 0.00 | 57 | 1015.7 |
| 20260510100043 | 59 | 26 | 3.0 | 8.0 | 0.00 | 0.00 | 0.00 | 57 | 1016.0 |
| 20260510094553 | 58 | 321 | 1.0 | 8.0 | 0.00 | 0.00 | 0.00 | 60 | 1016.1 |
| 20260510093051 | 57 | 325 | 3.0 | 7.0 | 0.00 | 0.00 | 0.00 | 62 | 1016.4 |
| 20260510091551 | 57 | 313 | 3.0 | 7.0 | 0.00 | 0.00 | 0.00 | 61 | 1016.4 |
| 20260510090048 | 58 | 319 | 3.0 | 9.0 | 0.00 | 0.00 | 0.00 | 60 | 1016.6 |
| 20260510084546 | 58 | 194 | 4.0 | 11.0 | 0.00 | 0.00 | 0.00 | 63 | 1016.7 |
| 20260510083043 | 58 | 200 | 6.0 | 10.0 | 0.00 | 0.00 | 0.00 | 64 | 1016.9 |
| 20260510081553 | 57 | 140 | 6.0 | 11.0 | 0.00 | 0.00 | 0.00 | 63 | 1017.0 |
| 20260510080042 | 55 | 76 | 4.0 | 9.0 | 0.00 | 0.00 | 0.00 | 60 | 1017.1 |
| 20260510074549 | 55 | 116 | 5.0 | 9.0 | 0.00 | 0.00 | 0.00 | 60 | 1017.1 |
| 20260510073104 | 54 | 138 | 5.0 | 9.0 | 0.00 | 0.00 | 0.00 | 62 | 1017.0 |
| 20260510071553 | 54 | 115 | 3.0 | 10.0 | 0.00 | 0.00 | 0.00 | 62 | 1017.2 |
| 20260510070051 | 53 | 43 | 5.0 | 9.0 | 0.00 | 0.00 | 0.00 | 61 | 1017.2 |
| 20260510064556 | 53 | 29 | 3.0 | 8.0 | 0.00 | 0.00 | 0.00 | 61 | 1017.3 |
| 20260510063050 | 52 | 35 | 3.0 | 10.0 | 0.00 | 0.00 | 0.00 | 62 | 1017.3 |
| 20260510061550 | 52 | 45 | 5.0 | 11.0 | 0.00 | 0.00 | 0.00 | 62 | 1017.5 |
| 20260510060049 | 52 | 71 | 5.0 | 9.0 | 0.00 | 0.00 | 0.00 | 64 | 1017.6 |
| 20260510054544 | 50 | 79 | 7.0 | 10.0 | 0.00 | 0.00 | 0.00 | 67 | 1017.7 |
| 20260510053042 | 48 | 33 | 5.0 | 9.0 | 0.00 | 0.00 | 0.00 | 74 | 1017.6 |
| 20260510051554 | 46 | 49 | 4.0 | 10.0 | 0.00 | 0.00 | 0.00 | 80 | 1017.6 |
| 20260510050049 | 46 | 82 | 3.0 | 6.0 | 0.00 | 0.00 | 0.00 | 85 | 1017.6 |
| 20260510044552 | 45 | 78 | 2.0 | 5.0 | 0.00 | 0.00 | 0.00 | 87 | 1017.7 |
| 20260510043053 | 45 | 0 | 0.0 | 2.0 | 0.00 | 0.00 | 0.00 | 88 | 1017.7 |
| 20260510041548 | 44 | 105 | 1.0 | 3.0 | 0.00 | 0.00 | 0.00 | 89 | 1017.7 |
| 20260510040050 | 44 | 0 | 0.0 | 2.0 | 0.00 | 0.00 | 0.00 | 89 | 1017.8 |
| 20260510034543 | 44 | 0 | 0.0 | 0.0 | 0.00 | 0.00 | 0.00 | 89 | 1017.7 |
| 20260510033045 | 43 | 0 | 0.0 | 0.0 | 0.00 | 0.00 | 0.00 | 88 | 1017.7 |
| 20260510031553 | 43 | 0 | 0.0 | 3.0 | 0.00 | 0.00 | 0.00 | 88 | 1017.6 |
| 20260510030044 | 43 | 76 | 1.0 | 3.0 | 0.00 | 0.00 | 0.00 | 88 | 1017.6 |
| 20260510024548 | 42 | 0 | 0.0 | 2.0 | 0.00 | 0.00 | 0.00 | 88 | 1017.6 |
| 20260510023050 | 42 | 0 | 0.0 | 0.0 | 0.00 | 0.00 | 0.00 | 87 | 1017.7 |
| 20260510021550 | 41 | 0 | 0.0 | 1.0 | 0.00 | 0.00 | 0.00 | 87 | 1017.7 |
| 20260510020051 | 41 | 55 | 1.0 | 3.0 | 0.00 | 0.00 | 0.00 | 86 | 1017.8 |
| 20260510014550 | 41 | 0 | 0.0 | 3.0 | 0.00 | 0.00 | 0.00 | 85 | 1017.8 |
| 20260510013049 | 42 | 55 | 1.0 | 3.0 | 0.00 | 0.00 | 0.00 | 85 | 1017.9 |
| 20260510011546 | 43 | 55 | 0.0 | 2.0 | 0.00 | 0.00 | 0.00 | 85 | 1018.0 |
| 20260510010044 | 45 | 55 | 1.0 | 3.0 | 0.00 | 0.00 | 0.00 | 84 | 1018.0 |
| 20260510004549 | 45 | 0 | 0.0 | 2.0 | 0.00 | 0.00 | 0.00 | 84 | 1018.1 |
| 20260510003049 | 46 | 0 | 0.0 | 3.0 | 0.00 | 0.00 | 0.00 | 84 | 1018.1 |
| 20260510001552 | 46 | 0 | 0.0 | 0.0 | 0.00 | 0.00 | 0.00 | 84 | 1018.2 |
| 20260510000052 | 46 | 0 | 0.0 | 2.0 | 0.00 | 0.00 | 0.00 | 84 | 1018.4 |
| 20260509234546 | 46 | 54 | 1.0 | 4.0 | 0.00 | 0.00 | 0.00 | 83 | 1018.4 |
| 20260509233048 | 46 | 36 | 2.0 | 4.0 | 0.00 | 0.00 | 0.00 | 83 | 1018.5 |
| 20260509231550 | 46 | 34 | 1.0 | 4.0 | 0.00 | 0.00 | 0.00 | 83 | 1018.6 |
| 20260509230043 | 46 | 63 | 2.0 | 4.0 | 0.00 | 0.00 | 0.00 | 83 | 1018.6 |
| 20260509224557 | 46 | 85 | 0.0 | 5.0 | 0.00 | 0.00 | 0.00 | 83 | 1018.7 |
| 20260509223048 | 46 | 80 | 1.0 | 6.0 | 0.00 | 0.00 | 0.00 | 83 | 1018.9 |
| 20260509221600 | 46 | 78 | 3.0 | 6.0 | 0.00 | 0.00 | 0.00 | 83 | 1019.0 |
| 20260509220048 | 46 | 46 | 4.0 | 9.0 | 0.00 | 0.00 | 0.00 | 83 | 1018.9 |
| 20260509214548 | 46 | 47 | 4.0 | 9.0 | 0.00 | 0.00 | 0.00 | 83 | 1019.2 |
| 20260509213049 | 47 | 46 | 2.0 | 8.0 | 0.00 | 0.00 | 0.00 | 83 | 1019.4 |
| 20260509211546 | 47 | 77 | 4.0 | 10.0 | 0.00 | 0.00 | 0.00 | 82 | 1019.4 |
| 20260509210049 | 47 | 59 | 5.0 | 10.0 | 0.00 | 0.00 | 0.00 | 82 | 1019.2 |
| 20260509204551 | 47 | 67 | 4.0 | 11.0 | 0.00 | 0.00 | 0.00 | 82 | 1019.2 |
| 20260509203046 | 47 | 80 | 5.0 | 10.0 | 0.00 | 0.00 | 0.00 | 83 | 1019.2 |
| 20260509201558 | 47 | 57 | 5.0 | 13.0 | 0.00 | 0.00 | 0.00 | 82 | 1019.2 |
| 20260509200058 | 47 | 65 | 4.0 | 12.0 | 0.00 | 0.00 | 0.00 | 82 | 1019.2 |
| 20260509194545 | 48 | 78 | 6.0 | 11.0 | 0.00 | 0.00 | 0.00 | 82 | 1019.1 |
| 20260509193048 | 48 | 77 | 5.0 | 13.0 | 0.00 | 0.00 | 0.00 | 82 | 1019.0 |